Regional Weather Roundup
Issued by NWS

Home | Current Version | Previous Version | Graphics & Text | Print | Product List | Glossary On
Versions: 1 2 3 4 5 6 7 8 9 10 11 12 13 14 15 16 17 18 19 20 21 22 23 24 25 26 27 28 29 30 31 32 33 34 35 36 37 38 39 40 41 42 43 44 45 46 47 48 49 50
000
ASUS43 KDMX 271606
RWRIA

WEATHER ROUNDUP FOR IOWA
NATIONAL WEATHER SERVICE DES MOINES IA
1100 AM CDT THU APR 27 2017

NOTE: "FAIR" INDICATES FEW OR NO CLOUDS BELOW 12,000 FEET WITH NO
SIGNIFICANT WEATHER AND/OR OBSTRUCTIONS TO VISIBILITY.

* - THESE STATIONS ARE NOT NWS STATIONS...THUS NOT UNDER NWS
QUALITY CONTROL.  THEY ALSO DO NOT REPORT WEATHER SUCH
AS PRECIPITATION OR FOG.

IAZ001>003-012>014-020>022-031>034-043>046-271700-
   NORTHWEST IOWA

CITY           SKY/WX    TMP DP  RH WIND       PRES   REMARKS
CARROLL *      CLOUDY    37  32  81 W15       29.69R WCI  28
CHEROKEE *     CLOUDY    34  30  86 NW13      29.69S WCI  25
DENISON *      CLOUDY    37  32  81 NW13G20   29.71S WCI  29
LE MARS *      CLOUDY    36  28  75 W13       29.72R WCI  27
ORANGE CITY *  CLOUDY    34  30  86 NW15      29.69R WCI  24
SHELDON *      CLOUDY    32  27  80 NW15G22   29.67R WCI  22
SIOUX CITY     CLOUDY    39  30  70 NW16G24   29.72S WCI  30
SPENCER        CLOUDY    33  26  75 NW22G28   29.67R WCI  21
STORM LAKE *     N/A     34  30  86 NW16      29.67S WCI  23
$$

IAZ055>058-069>071-079>083-090>094-271700-
   SOUTHWEST IOWA

CITY           SKY/WX    TMP DP  RH WIND       PRES   REMARKS
ATLANTIC *     CLOUDY    41  32  70 W12       29.71S
AUDUBON *      CLOUDY    37  30  75 NW12      29.71R WCI  30
CLARINDA *     MOSUNNY   46  34  61 N8G16     29.76R
COUNCIL BLFS *   N/A     41  34  75 NW9       29.72R
CRESTON *      CLOUDY    43  32  65 NW13G20   29.72S
HARLAN  *      CLOUDY    39  32  75 NW13      29.74R WCI  32
LAMONI         CLOUDY    44  34  67 W14       29.71R
RED OAK *      MOSUNNY   45  32  61 NW10      29.73R
SHENANDOAH *   SUNNY     46  34  61 NW7G14    29.74R
$$

IAZ047>049-059>061-072>074-084-271700-
   CENTRAL IOWA

CITY           SKY/WX    TMP DP  RH WIND       PRES   REMARKS
AMES           CLOUDY    37  30  75 NW15      29.68R WCI  28
ANKENY *       CLOUDY    37  30  75 W16G25    29.71R WCI  28
BOONE *        CLOUDY    36  28  75 W13G21    29.67R WCI  27
CHARITON *     CLOUDY    41  34  75 W16       29.70R
DES MOINES     CLOUDY    40  30  67 NW14      29.70R WCI  32
GRINNELL*      CLOUDY    37  30  77 W14       29.68R WCI  28
KNOXVILLE *    CLOUDY    39  30  70 NW17G24   29.69R WCI  30
MARSHALLTOWN   CLOUDY    36  29  75 W16G25    29.65R WCI  26
NEWTON *       CLOUDY    37  30  75 W15G24    29.67R WCI  28
PELLA *        CLOUDY    39  31  75 W13       29.71R WCI  31
PERRY *        CLOUDY    37  31  79 W17G23    29.70R WCI  28
$$

IAZ004>006-015-016-023>025-035-036-271700-
   NORTH CENTRAL IOWA

CITY           SKY/WX    TMP DP  RH WIND       PRES   REMARKS
ALGONA *       CLOUDY    32  28  86 NW17      29.66R WCI  21
CLARION *      CLOUDY    34  30  86 W20       29.66R WCI  22
ESTHERVILLE    CLOUDY    31  26  82 NW20      29.65R WCI  19
FORT DODGE *   CLOUDY    34  27  75 NW13      29.68S WCI  25
MASON CITY     CLOUDY    35  31  85 W18       29.63R WCI  24
FOREST CITY *  CLOUDY    34  32  93 NW14      29.62R WCI  24
WEBSTER CITY * CLOUDY    34  28  80 W17G23    29.65R WCI  23
IOWA FALLS *   CLOUDY    37  29  74 W18G24    29.66R WCI  26
$$

IAZ007>011-017>019-026>030-037>042-050>054-066-271700-
   NORTHEAST IOWA

CITY           SKY/WX    TMP DP  RH WIND       PRES   REMARKS
CEDAR RAPIDS   CLOUDY    36  35  96 W18       29.63R WCI  26
CHARLES CITY * CLOUDY    37  32  81 W16G23    29.60R WCI  28
CLINTON *      CLOUDY    40  36  86 W22       29.62R WCI  30
DECORAH *        N/A     37  32  81 W10G22    29.54R WCI  30
DUBUQUE        CLOUDY    39  35  86 W15       29.57R WCI  31
MONTICELLO *   CLOUDY    39  36  87 W18G24    29.60R WCI  30
OELWEIN *      CLOUDY    37  32  81 W21G26    29.60R WCI  27
WATERLOO       CLOUDY    38  30  73 W13       29.61R WCI  30
$$

IAZ064-065-067-068-078-271700-
   EAST CENTRAL IOWA

CITY           SKY/WX    TMP DP  RH WIND       PRES   REMARKS
DAVENPORT      CLOUDY    40  35  83 W21G26    29.64R WCI  30
IOWA CITY      CLOUDY    40  38  93 W18       29.67R WCI  31
MT. PLEASANT * CLOUDY    40  35  84 W12G18    29.69R WCI  33
MUSCATINE *    CLOUDY    41  34  75 W16G23    29.67R
QUAD CITIES    CLOUDY    41  34  76 W14G25    29.64R
$$

IAZ062-063-075>077-085>089-095>099-271700-
   SOUTHEAST IOWA

CITY           SKY/WX    TMP DP  RH WIND       PRES   REMARKS
BURLINGTON     CLOUDY    42  39  89 W12       29.68R
FAIRFIELD *    CLOUDY    39  36  87 NW13G18   29.68R WCI  32
FORT MADISON * CLOUDY    45  39  81 W9        29.69R
KEOKUK *       CLOUDY    43  37  81 W15       29.69R
OSKALOOSA *    CLOUDY    37  32  81 NW15      29.70R WCI  28
CENTERVILLE *  PTSUNNY   41  36  81 W15       29.73R
OTTUMWA        CLOUDY    40  33  76 W10       29.69R WCI  33
WASHINGTON *   CLOUDY    39  36  87 W18       29.69R WCI  30
$$

ABBREVIATIONS USED IN REMARKS
   TC - TEMPERATURES IN CELSIUS
  WCI - WIND CHILL INDEX
   HX - HEAT INDEX
  VSB - VISIBILITY
$$





USA.gov is the U.S. government's official web portal to all federal, state and local government web resources and services.